Flag for India Weather past 2 weeks in Ganganagar, Rajasthan, India

Now
90 °F

Haze.


Feels Like: 88 °F
Forecast: 71 / 95 °F
Wind: 9 mph from Northwest

Location: Lahore Airport

Current Time: Oct 20, 2014 at 4:07:39 PM

Latest Report: Oct 20, 2014 at 3:29 PM


Visibility: 3 mi

Pressure: 29.92 "Hg

Humidity: 33%

Dew point: 57 °F

Location of GanganagarLocation

Historic Weather in Ganganagar — Graph

°F

Ganganagar temperature yesterday

Maximum temperature yesterday: 90 °F (at 2:30 PM)
Minimum temperature yesterday: 64 °F (at 6:25 AM)
Average temperature yesterday: 78 °F

Past Weeks' High & Low Weather Summary

 TemperatureHumidityPressure
High95 °F (Oct 5, 2:55 PM)94% (Oct 7, 10:55 PM)30.09 "Hg (Oct 7, 10:55 PM)
Low61 °F (Oct 15, 6:25 AM)28% (Oct 12, 4:25 PM)29.65 "Hg (Oct 15, 12:55 AM)
Average78 °F62%29.91 "Hg
* Reported Oct 5 2:55 PM — Oct 20 2:55 PM, Ganganagar, Weather by CustomWeather, © 2014

Note: Actual official high and low records may vary slightly from our data, if they occured in-between our weather recording intervals... More about our weather records

Advertising

Ganganagar weather history for previous 24 hours

 ConditionsComfort  
Time TempWeatherWind HumidityBarometerVisibility
2:55 PM
Oct 20
90 °FHaze.N/A29%29.92 "Hg2 mi
2:29 PM90 °FHaze.8 mph29%29.95 "Hg2 mi
1:59 PM88 °FHaze.8 mph33%29.95 "Hg2 mi
1:29 PM88 °FHaze.8 mph33%29.95 "Hg2 mi
12:59 PM86 °FHaze.7 mph35%29.98 "Hg2 mi
12:29 PM86 °FClear.6 mph35%29.98 "Hg2 mi
11:59 AM84 °FHaze.6 mph40%29.98 "Hg2 mi
11:29 AM82 °FHaze.5 mph42%29.98 "Hg2 mi
10:59 AM81 °FHaze.5 mph48%30.01 "Hg2 mi
10:29 AM79 °FClear.5 mph51%30.01 "Hg2 mi
5:25 AM66 °FClear.No wind83%29.92 "Hg2 mi
4:25 AM68 °FClear.No wind78%29.92 "Hg2 mi
3:55 AM68 °FClear.No wind78%29.89 "Hg2 mi
2:25 AM72 °FClear.No wind69%29.92 "Hg2 mi
1:55 AM72 °FClear.No wind65%29.95 "Hg2 mi
1:25 AM73 °FClear.3 mph61%29.95 "Hg2 mi
12:55 AM73 °FClear.No wind61%29.95 "Hg2 mi
12:25 AM75 °FClear.No wind57%29.95 "Hg2 mi
11:25 PM
Oct 19
75 °FClear.No wind57%29.95 "Hg2 mi
10:55 PM75 °FClear.No wind54%29.95 "Hg3 mi
10:25 PM77 °FClear.No wind54%29.95 "Hg3 mi
9:55 PM77 °FClear.No wind51%29.95 "Hg3 mi
8:25 PM81 °FClear.3 mph48%29.95 "Hg4 mi
7:55 PM82 °FClear.5 mph45%29.95 "Hg4 mi
7:25 PM82 °FClear.3 mph45%29.92 "Hg4 mi
6:55 PM82 °FClear.No wind45%29.92 "Hg4 mi
6:25 PM82 °FClear.3 mph45%29.92 "Hg4 mi
5:55 PM84 °FClear.3 mph43%29.89 "Hg4 mi
5:30 PM86 °FClear.5 mph35%29.89 "Hg4 mi
5:00 PM88 °FClear.7 mph33%29.89 "Hg5 mi
4:30 PM88 °FClear.7 mph33%29.89 "Hg5 mi
4:00 PM90 °FClear.6 mph29%29.89 "Hg5 mi
Weather by CustomWeather, © 2014

See weather overviewHow to use our weather pages